STARLINK-4601, 53617

Orbit data source: Space-Track

STARLINK-4601, 53617 is a payload satellite owned by SpaceX/Seattle (US) in LEO that was launched on Sun, 28 Aug 2022 UTC via an FALCON 9 launch vehicle from the Air Force Eastern Test Range (AFETR). Payloads include a variety of satellites, spacecraft, and rockets equipped with specific instruments for various scientific and technological missions. These include communications satellites like Starlink; space stations such as the ISS; scientific satellites like the Hubble; Earth observation satellites from companies like Planet Labs, Umbra, and HawkEye 360; GPS; miniature CubeSats for education and research; and military/defense satellites.

Not visible in the next 10 days
STARLINK-4601 details
Identifier
53617, 2022-104AF
Orbit
LEO
Last TLE update4 hours ago
Origin
Flag of USSpaceX/Seattle (US)
ManufacturerSpaceX/Seattle
MissionPartially operational Commercial Communications
Bus & MotorSTARLINK, Unknown motor
Mass300 kg wet, ~290 kg dry
Launch date (UTC)
2022-08-28 (2 years ago)
Launch vehicle
FALCON 9
Launch site
Air Force Eastern Test Range (AFETR)
Object type
Payload
Rocket body
Debris
Shape & HBRBox + 1 Pan, 8.86 m
Radar Cross Section13.562 m², Large (>1 m²)

Expand to show TLE details & history

TLE from 4 hours ago
0 STARLINK-4601
1 53617U 22104AF  24361.58334491  .00606192  17404-3  11694-2 0  9990
2 53617  53.2058  23.0082 0001751  70.8684   4.3878 15.99880074129169
Epoch: 2024-12-26T14:00Z
Definitive object data (Epoch: 2024-12-26T14:00:01Z)
Latitude50.90743°
Longitude143.70018°
Altitude279.591 km
Speed7.747 km/s
True Right ascension05h 57m 03s
True Declination50° 43' 37"
Sunlit
Object was in full shadow at TLE epoch
Visualization TLE readout
Latitude-13.79984°
Longitude-92.78378°
Altitude278.687 km
Speed7.74 km/s
Apparent Right ascension10h 54m 06s
Apparent Declination-53° 25' 54"
Sunlit
Object is in daylight
Visualization observer readout
Local Sidereal Time16:52:42
Azimuth223.935° SW
Elevation-30.834°
Doppler factor1
Orbital elements
Apogee altitude276.172 km
Perigee altitude273.842 km
Semi-major axis6,653.144 km
Eccentricity0.0001751
Inclination53.2058°
RAAN23.0082°
Arg. of periapsis70.8684°
True anomaly4.38934°
Mean anomaly4.3878°
Eccentric anomaly4.38857°
Mean motion3.99947 °/min
BSTAR0.0011694
Orbital period90.01 mins
Loading maneuver chart data...
Loading historical data...
Loading historical data...
Loading historical data...
Loading historical data...
Loading historical data...
Loading historical data...
Loading historical data...

STARLINK-4601 Visibility forecast

Observer location: undefined°, undefined

STARLINK-4601 is not visible in the next 10 days
Span
Click to sort rows by Start time (UTC) header in descending order
Start Az.
Max El. time (UTC)
Max El. Az.
Max El.
End time (UTC)
End Az.
|